sat.trackr.live / text

‹ back to catalog

GOES 17

NORAD 43226 · 2018-022A

PAYLOAD ACTIVE UNKNOWN

§ Identity

Operator
Country
US
Launch date
2018-03-01
Launch site
AFETR
Launch vehicle
Mass (kg)
RCS (m²)

Purposes: comms, earth_obs

External: N2YO · Heavens-Above · Gunter

§ Orbital elements

Epoch: 2026-05-25T03:26:38.623776Z

Period
1,436.10 min
Inclination
0.8816°
Eccentricity
0.0000560
Mean motion
1.00271818 rev/d
Perigee alt
35,784.2 km
Apogee alt
35,788.9 km
Semi-major
42,164.7 km
B*
0.0000e+0
RAAN
86.0315°
Arg perigee
338.9965°
Mean anomaly
139.8782°
Rev number
3,019

§ Raw data

GOES 171 43226U 18022A   26145.14350259 -.00000184  00000+0  00000+0 0  99992 43226   0.8816  86.0315 0000560 338.9965 139.8782  1.00271818 30198

JSON: /api/v1/satellites/43226 · /tle

For live sub-satellite position, see the globe view (requires WebGL).

§ Visibility from observer

Set your observer location to see the next 7 days of passes ≥ 10°. The values pass through the URL so the page stays shareable.

No JS? Fill the form by hand. The geolocation button needs JavaScript.

§ Radio — SatNOGS DB

ModeDescriptionDownlinkUplink
FM CDA 1.693 GHz
BPSK PMT-A3 DCP 1.694 GHz
FM DCPD 468.825 MHz
FM Downlink 148.545 MHz
OQPSK EMWIN 1.693 GHz
FM Mode U TLM 468.775 MHz
BPSK SARSAT L-band 1.545 GHz
PSK SARSAT to LUT 2.211 GHz

8 transmitters · refreshed weekly from db.satnogs.org